• In Belarus
  • List of Countries
  • For 7 days
  • Water Temperature
  • Weather Map
  • Weather Widgets
  • user-avatar
    Login

    Hourly Weather Yulara

    Today, 27 February, Thursday

    Time Temperature Precipitation Wind Pressure Humidity
    00:00 +33°C° 0 mm 5 mps 715 mmHg 22%
    01:00 +32°C° 0 mm 6 mps 715 mmHg 24%
    02:00 +30°C° 0 mm 6 mps 715 mmHg 26%
    03:00 +31°C° 0 mm 8 mps 715 mmHg 29%
    04:00 +29°C° 0 mm 8 mps 716 mmHg 31%
    05:00 +29°C° 0 mm 7 mps 716 mmHg 32%
    06:00 +28°C° 0 mm 7 mps 716 mmHg 34%
    07:00 +31°C° 0 mm 8 mps 716 mmHg 31%
    08:00 +33°C° 0 mm 8 mps 717 mmHg 28%
    09:00 +35°C° 0 mm 9 mps 718 mmHg 24%
    10:00 +37°C° 0 mm 8 mps 717 mmHg 22%
    11:00 +39°C° 0 mm 7 mps 717 mmHg 20%
    12:00 +40°C° 0 mm 7 mps 717 mmHg 18%
    13:00 +41°C° 0 mm 6 mps 716 mmHg 17%
    14:00 +41°C° 0 mm 6 mps 715 mmHg 16%
    15:00 +41°C° 0 mm 5 mps 715 mmHg 16%
    16:00 +41°C° 0 mm 5 mps 715 mmHg 16%
    17:00 +40°C° 0 mm 5 mps 715 mmHg 16%
    18:00 +40°C° 0 mm 5 mps 715 mmHg 16%
    19:00 +37°C° 0 mm 4 mps 716 mmHg 18%
    20:00 +35°C° 0 mm 4 mps 716 mmHg 20%
    21:00 +34°C° 0 mm 4 mps 716 mmHg 21%
    22:00 +33°C° 0 mm 5 mps 716 mmHg 23%
    23:00 +32°C° 0 mm 6 mps 716 mmHg 26%

    Tomorrow, 28 February, Friday

    Time Temperature Precipitation Wind Pressure Humidity
    00:00 +30°C° 0 mm 7 mps 716 mmHg 28%
    01:00 +29°C° 0 mm 7 mps 716 mmHg 29%
    02:00 +28°C° 0 mm 7 mps 716 mmHg 31%
    03:00 +27°C° 0 mm 7 mps 716 mmHg 33%
    04:00 +27°C° 0 mm 7 mps 716 mmHg 31%
    05:00 +26°C° 0 mm 7 mps 716 mmHg 29%
    06:00 +26°C° 0 mm 7 mps 717 mmHg 27%
    07:00 +27°C° 0 mm 7 mps 717 mmHg 26%
    08:00 +28°C° 0 mm 8 mps 717 mmHg 24%
    09:00 +31°C° 0 mm 8 mps 718 mmHg 23%
    10:00 +32°C° 0 mm 7 mps 717 mmHg 21%
    11:00 +34°C° 0 mm 7 mps 717 mmHg 20%
    12:00 +36°C° 0 mm 6 mps 717 mmHg 19%
    13:00 +37°C° 0 mm 5 mps 716 mmHg 18%
    14:00 +38°C° 0 mm 4 mps 715 mmHg 17%
    15:00 +38°C° 0 mm 3 mps 715 mmHg 16%
    16:00 +38°C° 0 mm 3 mps 715 mmHg 16%
    17:00 +38°C° 0 mm 3 mps 714 mmHg 16%
    18:00 +38°C° 0 mm 3 mps 714 mmHg 16%
    19:00 +36°C° 0 mm 3 mps 715 mmHg 18%
    20:00 +34°C° 0 mm 3 mps 715 mmHg 20%
    21:00 +31°C° 0 mm 3 mps 716 mmHg 22%
    22:00 +30°C° 0 mm 4 mps 716 mmHg 21%
    23:00 +29°C° 0 mm 6 mps 716 mmHg 20%

    Day after tomorrow, 29 February, Saturday

    Time Temperature Precipitation Wind Pressure Humidity
    00:00 +28°C° 0 mm 8 mps 716 mmHg 19%
    01:00 +27°C° 0 mm 6 mps 716 mmHg 20%
    02:00 +26°C° 0 mm 5 mps 715 mmHg 20%
    03:00 +25°C° 0 mm 4 mps 715 mmHg 21%
    04:00 +25°C° 0 mm 4 mps 715 mmHg 21%
    05:00 +23°C° 0 mm 4 mps 715 mmHg 21%
    06:00 +22°C° 0 mm 4 mps 716 mmHg 21%
    07:00 +26°C° 0 mm 5 mps 716 mmHg 19%
    08:00 +28°C° 0 mm 6 mps 717 mmHg 16%
    09:00 +32°C° 0 mm 7 mps 717 mmHg 14%
    10:00 +33°C° 0 mm 6 mps 717 mmHg 13%
    11:00 +35°C° 0 mm 5 mps 716 mmHg 13%
    12:00 +37°C° 0 mm 5 mps 716 mmHg 12%
    13:00 +38°C° 0 mm 4 mps 715 mmHg 12%
    14:00 +39°C° 0 mm 3 mps 714 mmHg 11%
    15:00 +39°C° 0 mm 1 mps 713 mmHg 11%
    16:00 +39°C° 0 mm 2 mps 713 mmHg 11%
    17:00 +39°C° 0 mm 3 mps 713 mmHg 11%
    18:00 +39°C° 0 mm 3 mps 713 mmHg 10%
    19:00 +37°C° 0 mm 4 mps 714 mmHg 12%
    20:00 +34°C° 0 mm 4 mps 714 mmHg 13%
    21:00 +32°C° 0 mm 5 mps 714 mmHg 15%
    22:00 +30°C° 0 mm 5 mps 714 mmHg 15%
    23:00 +29°C° 0 mm 5 mps 714 mmHg 15%

    1 March, Sunday

    Time Temperature Precipitation Wind Pressure Humidity
    00:00 +28°C° 0 mm 5 mps 714 mmHg 16%
    01:00 +27°C° 0 mm 4 mps 713 mmHg 16%
    02:00 +26°C° 0 mm 4 mps 713 mmHg 16%
    03:00 +25°C° 0 mm 4 mps 713 mmHg 16%
    04:00 +25°C° 0 mm 4 mps 713 mmHg 17%
    05:00 +25°C° 0 mm 3 mps 713 mmHg 17%
    06:00 +24°C° 0 mm 3 mps 714 mmHg 18%
    07:00 +27°C° 0 mm 4 mps 714 mmHg 16%
    08:00 +30°C° 0 mm 5 mps 714 mmHg 14%
    09:00 +34°C° 0 mm 5 mps 715 mmHg 12%
    10:00 +36°C° 0 mm 5 mps 714 mmHg 15%
    11:00 +37°C° 0 mm 5 mps 714 mmHg 18%
    12:00 +40°C° 0 mm 6 mps 713 mmHg 21%
    13:00 +41°C° 0 mm 6 mps 713 mmHg 20%
    14:00 +41°C° 0 mm 6 mps 712 mmHg 19%
    15:00 +42°C° 0 mm 5 mps 712 mmHg 19%
    16:00 +38°C° 0.1 mm 8 mps 712 mmHg 29%
    17:00 +34°C° 0.1 mm 10 mps 712 mmHg 39%
    18:00 +29°C° 0.1 mm 13 mps 712 mmHg 49%
    19:00 +28°C° 0.5 mm 11 mps 713 mmHg 49%
    20:00 +27°C° 0.5 mm 10 mps 714 mmHg 49%
    21:00 +26°C° 0.5 mm 9 mps 714 mmHg 48%
    22:00 +26°C° 0.1 mm 6 mps 715 mmHg 51%
    23:00 +26°C° 0.1 mm 4 mps 715 mmHg 53%

    2 March, Monday

    Time Temperature Precipitation Wind Pressure Humidity
    00:00 +26°C° 0.1 mm 2 mps 715 mmHg 56%
    01:00 +26°C° 0 mm 2 mps 714 mmHg 57%
    02:00 +25°C° 0 mm 2 mps 714 mmHg 58%
    03:00 +25°C° 0 mm 2 mps 714 mmHg 59%
    04:00 +25°C° 0 mm 2 mps 714 mmHg 60%
    05:00 +25°C° 0 mm 2 mps 715 mmHg 60%
    06:00 +25°C° 0 mm 2 mps 715 mmHg 61%
    07:00 +25°C° 0 mm 3 mps 715 mmHg 55%
    08:00 +26°C° 0 mm 4 mps 716 mmHg 50%
    09:00 +27°C° 0 mm 5 mps 716 mmHg 45%
    10:00 +28°C° 0 mm 6 mps 716 mmHg 41%
    11:00 +29°C° 0 mm 6 mps 716 mmHg 38%
    12:00 +30°C° 0 mm 6 mps 716 mmHg 34%
    13:00 +32°C° 0 mm 6 mps 715 mmHg 31%
    14:00 +33°C° 0 mm 7 mps 715 mmHg 28%
    15:00 +34°C° 0 mm 7 mps 714 mmHg 25%
    16:00 +33°C° 0 mm 6 mps 714 mmHg 27%
    17:00 +32°C° 0 mm 6 mps 714 mmHg 28%
    18:00 +32°C° 0 mm 6 mps 714 mmHg 29%
    19:00 +29°C° 0 mm 5 mps 715 mmHg 31%
    20:00 +28°C° 0 mm 4 mps 715 mmHg 33%
    21:00 +27°C° 0 mm 4 mps 716 mmHg 36%
    22:00 +27°C° 0 mm 4 mps 716 mmHg 36%
    23:00 +27°C° 0 mm 4 mps 716 mmHg 36%

    3 March, Tuesday

    Time Temperature Precipitation Wind Pressure Humidity
    00:00 +27°C° 0 mm 5 mps 716 mmHg 36%
    01:00 +26°C° 0 mm 5 mps 716 mmHg 37%
    02:00 +26°C° 0 mm 5 mps 715 mmHg 38%
    03:00 +26°C° 0 mm 5 mps 715 mmHg 39%
    04:00 +25°C° 0 mm 5 mps 715 mmHg 41%
    05:00 +23°C° 0 mm 6 mps 715 mmHg 43%
    06:00 +23°C° 0 mm 6 mps 715 mmHg 46%
    07:00 +26°C° 0 mm 7 mps 716 mmHg 41%
    08:00 +27°C° 0 mm 8 mps 716 mmHg 36%
    09:00 +29°C° 0 mm 9 mps 716 mmHg 31%
    10:00 +32°C° 0 mm 9 mps 716 mmHg 29%
    11:00 +33°C° 0 mm 8 mps 715 mmHg 26%
    12:00 +35°C° 0 mm 8 mps 715 mmHg 24%
    13:00 +35°C° 0 mm 8 mps 714 mmHg 23%
    14:00 +37°C° 0 mm 8 mps 714 mmHg 22%
    15:00 +38°C° 0 mm 8 mps 713 mmHg 21%
    16:00 +37°C° 0 mm 8 mps 713 mmHg 23%
    17:00 +35°C° 0 mm 7 mps 713 mmHg 24%
    18:00 +34°C° 0 mm 7 mps 714 mmHg 25%
    19:00 +33°C° 0 mm 7 mps 714 mmHg 29%
    20:00 +32°C° 0 mm 7 mps 715 mmHg 32%
    21:00 +30°C° 0 mm 7 mps 715 mmHg 36%
    22:00 +29°C° 0.1 mm 6 mps 715 mmHg 42%
    23:00 +28°C° 0.1 mm 6 mps 715 mmHg 48%
    Show more